Wind_Speed
29 27 28 24 21 19 18 16 11 9 6 7 18 22 23 25 21 21 18 15 13 13 15 15 14 12 11 9 10 12 13 15 16 17 17 18 18 19
33 29 31 25 21 21 22 19 17 12 11 10 15 20 21 20 19 18 15 14 13 14 17 15 13 12 12 12 12 13 14 15 17 20 21 22 22 25
36 32 28 29 25 23 22 20 18 16 10 13 18 18 18 16 17 17 16 17 17 18 18 16 16 17 17 18 18 18 19 22 24 23 22 25 27 28
38 35 30 30 27 23 24 21 19 19 18 14 20 20 19 19 18 18 17 19 20 20 20 21 22 22 22 23 22 21 23 25 25 27 30 31 33 35
39 39 33 33 28 27 22 26 24 20 22 19 22 25 23 19 25 21 25 25 24 24 23 23 25 24 25 28 28 27 29 29 31 34 34 37 39 42
40 40 37 36 33 26 23 25 22 18 22 21 21 27 29 26 25 27 28 28 29 28 28 29 29 30 30 31 34 35 37 37 39 41 42 43 46 50
43 40 37 37 34 26 22 23 22 22 25 24 25 26 27 29 28 25 31 34 34 34 35 35 36 37 37 38 39 40 42 45 47 48 49 51 53 54
42 37 37 39 37 31 25 25 26 27 27 27 26 27 29 28 31 31 30 35 38 39 40 42 43 43 44 45 47 47 50 52 53 54 56 58 61 63
41 37 35 36 35 33 32 30 24 23 28 29 30 33 33 32 35 38 39 39 42 46 48 50 49 50 50 52 55 54 56 57 59 61 63 65 66 69
36 39 37 35 32 34 33 38 35 34 31 36 37 36 37 39 40 41 42 43 46 47 48 52 51 52 54 56 58 62 62 64 67 69 71 73 76 78
35 33 32 32 32 34 37 38 38 37 37 37 37 38 39 43 42 42 44 47 50 51 53 56 56 58 59 61 60 64 66 67 69 71 74 75 78 81
29 27 28 29 29 30 31 31 33 33 36 37 39 40 41 45 44 46 48 49 50 52 52 54 56 56 60 61 63 64 66 68 70 72 76 80 82 81
34 32 31 32 33 35 35 35 34 35 39 40 43 45 47 49 49 51 53 55 56 56 58 60 62 62 63 67 69 70 74 75 74 72 72 72 73 75
40 37 34 38 40 36 35 35 35 35 38 42 43 44 52 56 58 58 59 61 64 65 64 64 63 64 65 66 66 64 64 65 68 70 73 77 80 82
40 41 43 42 40 39 38 37 36 36 37 36 37 39 43 44 46 47 47 48 49 50 50 52 54 57 58 60 62 64 67 71 74 78 82 82 82 82
43 43 43 43 43 44 44 43 42 43 44 46 49 51 53 55 57 57 57 58 59 59 59 59 60 61 62 63 65 68 72 77 76 74 69 70 71 76
45 45 46 45 46 47 48 50 53 55 53 57 60 62 63 64 64 66 67 66 66 66 66 66 66 65 66 66 69 68 67 60 56 60 62 65 64 62
49 48 47 49 52 54 56 57 60 66 69 61 57 60 64 67 70 72 74 76 75 74 74 73 71 71 69 63 58 52 53 54 58 55 56 52 50 55
51 54 59 59 65 68 68 70 70 55 48 40 36 36 42 44 50 50 54 57 58 58 53 50 49 46 44 45 45 44 46 46 49 51 51 54 56 57
45 46 49 50 51 51 42 35 30 28 25 27 26 28 33 38 34 36 33 35 37 39 34 32 33 34 37 40 45 48 53 54 54 55 58 58 59 58
41 49 47 43 36 30 26 24 21 21 22 29 32 35 36 33 36 34 29 25 23 25 27 29 33 39 44 49 54 57 59 58 59 60 64 64 62 60
28 32 30 27 21 20 21 19 16 13 14 20 18 28 34 37 40 40 37 31 31 34 35 38 43 49 51 55 55 56 58 60 60 62 65 66 64 64
30 35 31 31 30 24 22 24 24 20 25 33 36 34 35 33 41 42 42 42 44 43 45 48 50 50 47 48 53 58 61 59 58 61 65 68 65 63
Wind_Direction
189 188 183 180 183 180 177 175 196 186 179 168 173 180 179 177 180 183 186 191 195 201 200 195 194 205 221 238 245 254 257 253 254 261 268 272 276 278
196 193 195 197 188 188 187 189 190 187 193 199 186 179 181 184 188 190 198 207 215 213 202 203 219 230 240 246 252 254 256 258 259 261 266 274 280 284
202 201 202 205 199 189 190 199 210 215 220 206 204 199 194 197 205 207 218 224 227 219 216 227 236 241 244 251 261 263 264 267 269 272 271 275 277 281
204 203 201 201 200 206 204 207 216 221 229 214 213 219 213 216 207 214 224 228 221 224 228 235 241 246 252 259 265 265 269 269 268 272 273 275 281 288
208 206 200 198 202 203 213 216 212 224 225 224 214 216 218 224 220 227 239 232 235 237 243 250 249 255 261 261 258 263 262 264 270 276 281 281 283 285
205 201 199 198 200 204 209 214 212 222 222 229 228 221 230 234 234 238 247 244 242 244 249 254 258 262 264 264 263 264 269 271 272 274 275 277 279 285
199 198 199 201 198 198 209 212 222 225 227 233 232 227 227 231 232 246 247 244 244 246 250 254 261 265 267 269 269 270 271 271 272 273 275 276 278 283
197 204 203 201 204 211 219 223 232 238 233 235 237 239 243 247 249 257 256 253 252 255 261 262 264 263 263 261 263 266 269 270 273 275 278 282 284 286
202 205 207 212 217 225 230 228 234 244 241 239 243 244 246 248 250 251 253 252 254 257 261 265 268 269 269 268 271 273 274 276 278 279 279 281 283 287
209 213 220 229 234 233 230 231 241 247 251 249 245 245 246 247 253 257 257 259 261 263 267 271 271 273 274 276 276 277 279 280 281 281 283 285 286 287
213 215 223 234 240 237 235 238 244 249 251 252 254 253 258 259 262 263 265 265 266 268 269 272 273 274 275 276 276 278 281 282 282 283 284 286 288 288
216 218 224 233 236 237 239 245 249 250 253 256 260 263 264 264 263 265 266 266 269 271 271 273 275 278 280 282 282 282 283 283 284 284 285 287 288 290
228 231 234 241 244 246 248 251 253 256 257 260 263 265 266 265 264 264 265 268 270 274 277 278 278 279 280 281 283 284 285 287 288 290 290 289 289 290
229 230 232 238 242 244 250 252 251 255 259 263 267 271 271 271 271 274 274 272 274 275 276 278 281 282 283 284 286 288 289 290 290 290 291 291 291 292
226 233 235 242 247 247 251 250 252 256 261 264 266 269 274 275 276 277 276 276 276 276 277 279 281 282 283 284 287 289 290 292 293 291 294 294 294 294
233 236 241 249 249 250 252 255 261 265 266 267 267 270 272 274 274 274 273 272 272 273 275 276 278 279 280 284 286 289 292 294 295 295 297 298 296 295
241 241 244 250 254 255 256 258 262 267 272 277 275 273 273 273 273 272 272 273 273 274 276 277 279 280 282 285 288 291 292 291 296 299 302 305 306 307
246 246 246 252 256 257 261 264 266 269 276 273 273 274 276 275 274 273 272 272 272 273 273 274 277 280 283 286 286 287 290 291 296 309 312 311 314 318
244 248 248 251 254 259 259 262 268 269 267 263 265 277 282 294 293 287 279 274 272 272 274 274 274 277 280 280 285 291 297 303 307 315 324 325 322 325
244 248 254 257 257 258 253 245 254 257 266 265 280 285 290 290 292 303 290 280 274 267 265 268 271 272 275 282 292 299 303 308 315 319 318 318 323 323
252 256 254 249 240 230 235 237 250 259 275 278 278 282 276 289 285 294 298 285 274 272 268 267 273 278 287 294 299 302 306 307 310 316 317 318 318 320
247 230 216 213 217 223 233 236 244 259 281 263 292 281 278 280 285 292 290 269 261 262 267 274 280 287 292 297 305 306 306 308 309 309 310 317 314 314
215 209 208 215 223 237 250 258 251 273 288 281 279 289 299 293 282 285 285 282 276 270 272 274 278 286 293 293 300 302 308 311 310 308 310 314 312 311
Height
10960 10963 10966 10969 10971 10973 10975 10978 10981 10982 10984 10986 10987 10989 10991 10993 10996 10998 11000 11000 11001 11001 11002 11004 11006 11007 11009 11010 11010 11010 11011 11010 11010 11010 11010 11010 11008 11007
10955 10960 10963 10966 10970 10972 10974 10977 10980 10981 10984 10986 10988 10990 10991 10994 10995 10997 10999 11000 11001 11001 11002 11003 11005 11006 11007 11007 11007 11007 11007 11007 11006 11006 11005 11004 11003 11001
10950 10955 10959 10964 10968 10970 10974 10977 10979 10981 10983 10985 10987 10989 10991 10993 10994 10995 10997 10998 10999 11000 11001 11002 11003 11004 11004 11004 11004 11003 11003 11003 11002 11001 11000 10999 10997 10995
10946 10951 10955 10960 10965 10969 10971 10974 10977 10979 10981 10983 10986 10988 10990 10991 10993 10994 10994 10995 10996 10996 10998 10998 10999 10999 11000 11000 11000 10999 10998 10997 10996 10995 10994 10992 10990 10987
10942 10947 10951 10957 10962 10966 10969 10970 10973 10975 10977 10979 10981 10983 10986 10988 10989 10991 10992 10993 10993 10995 10995 10994 10994 10994 10994 10994 10993 10992 10991 10990 10990 10988 10987 10984 10981 10978
10936 10942 10947 10952 10957 10961 10964 10967 10969 10972 10974 10976 10977 10979 10982 10984 10985 10987 10988 10988 10989 10990 10990 10990 10989 10989 10988 10987 10987 10985 10984 10983 10982 10980 10978 10974 10971 10968
10931 10936 10941 10946 10951 10956 10959 10962 10965 10967 10970 10972 10974 10976 10977 10979 10980 10981 10982 10982 10983 10983 10984 10983 10983 10982 10981 10980 10978 10977 10975 10974 10972 10969 10966 10963 10960 10956
10929 10933 10938 10942 10946 10949 10953 10956 10959 10962 10964 10966 10968 10970 10972 10974 10974 10975 10974 10974 10976 10976 10975 10975 10974 10974 10973 10971 10969 10968 10966 10963 10961 10958 10954 10950 10946 10942
10927 10931 10934 10938 10942 10945 10947 10950 10953 10956 10958 10960 10962 10965 10965 10966 10967 10967 10967 10967 10967 10967 10965 10962 10964 10963 10962 10960 10958 10957 10955 10953 10950 10946 10941 10936 10931 10927
10923 10928 10931 10935 10937 10940 10941 10944 10947 10949 10952 10954 10954 10955 10956 10957 10957 10957 10958 10957 10957 10957 10955 10951 10954 10952 10950 10948 10948 10942 10942 10940 10935 10930 10925 10920 10915 10909
10919 10923 10927 10931 10933 10933 10935 10937 10939 10941 10943 10944 10945 10946 10948 10949 10950 10950 10948 10947 10946 10945 10945 10941 10941 10939 10937 10934 10935 10930 10928 10925 10920 10915 10909 10904 10898 10892
10913 10915 10919 10923 10924 10927 10927 10929 10931 10933 10933 10934 10935 10936 10938 10937 10938 10937 10936 10935 10934 10931 10930 10930 10928 10926 10921 10919 10917 10916 10911 10908 10903 10899 10893 10886 10880 10872
10904 10908 10912 10914 10916 10918 10919 10920 10921 10923 10923 10924 10925 10924 10924 10923 10924 10924 10923 10922 10921 10919 10916 10916 10913 10912 10908 10902 10900 10898 10893 10890 10886 10878 10872 10867 10860 10853
10895 10899 10902 10903 10906 10908 10909 10910 10911 10913 10914 10914 10914 10913 10912 10912 10911 10911 10910 10910 10908 10906 10903 10901 10898 10895 10892 10887 10882 10879 10874 10869 10865 10860 10854 10847 10839 10833
10886 10889 10892 10895 10898 10898 10900 10900 10901 10903 10904 10903 10903 10903 10902 10901 10899 10897 10896 10894 10893 10891 10889 10886 10883 10879 10876 10871 10866 10862 10857 10853 10846 10839 10833 10825 10818 10809
10876 10880 10883 10885 10888 10890 10890 10892 10893 10893 10892 10892 10890 10889 10888 10886 10884 10882 10881 10879 10876 10875 10872 10870 10867 10864 10860 10857 10852 10846 10840 10833 10826 10819 10811 10805 10795 10787
10867 10869 10872 10875 10877 10879 10880 10879 10878 10877 10877 10877 10875 10871 10869 10868 10867 10864 10862 10860 10858 10856 10855 10852 10850 10848 10845 10842 10838 10833 10827 10818 10811 10805 10796 10788 10779 10769
10856 10859 10860 10861 10862 10864 10864 10863 10864 10864 10863 10862 10861 10855 10853 10851 10848 10845 10842 10839 10837 10836 10836 10835 10834 10833 10831 10827 10824 10818 10813 10806 10800 10791 10783 10774 10766 10757
10843 10845 10846 10847 10848 10848 10849 10849 10848 10848 10849 10848 10847 10843 10840 10839 10831 10824 10820 10818 10818 10818 10818 10818 10818 10818 10816 10814 10810 10806 10801 10795 10788 10781 10773 10765 10757 10748
10828 10829 10830 10831 10833 10834 10836 10836 10836 10837 10837 10836 10834 10833 10831 10827 10823 10812 10806 10805 10805 10804 10803 10805 10806 10805 10803 10801 10798 10794 10789 10783 10777 10770 10764 10756 10747 10738
10815 10815 10815 10818 10822 10826 10827 10828 10829 10830 10829 10828 10824 10822 10820 10817 10812 10807 10800 10799 10798 10798 10797 10797 10797 10795 10792 10788 10785 10780 10775 10770 10764 10757 10751 10744 10736 10728
10802 10802 10806 10812 10815 10817 10819 10821 10822 10821 10820 10818 10815 10811 10809 10806 10804 10800 10796 10792 10790 10789 10787 10787 10785 10782 10778 10776 10772 10767 10762 10756 10750 10745 10738 10731 10723 10715
10796 10797 10799 10804 10806 10808 10812 10813 10813 10812 10810 10807 10804 10800 10799 10796 10794 10793 10789 10785 10783 10780 10777 10775 10773 10770 10767 10763 10759 10754 10749 10742 10737 10731 10725 10718 10708 10700